Wetbulb
53.73 54.07 54.05 54.44 54.51 54.47 54.49 54.35 54.66 54.91 55.01 55.14 55.52 55.35 55.37 55.22 55.26 54.77 52.29 57.15 61.26 64.48 64.51 63.21 63.22 64.37 64.59 62.85 59.86 57.52 50.78 49.89 51.84 53.15 54.58 58.33 56.86 59.71 61.13 59.06 59.67 60.63 60.43 62.09 63.97
53.14 53.68 53.83 54.04 53.90 54.21 54.39 54.15 54.14 54.35 54.45 54.78 55.05 55.28 55.62 55.79 52.41 52.01 58.57 64.54 65.48 65.90 56.90 56.39 59.22 60.81 58.48 58.55 58.98 54.33 50.66 51.49 55.64 56.44 55.83 57.85 57.89 58.29 58.29 58.56 58.69 59.75 62.41 63.12 63.44
52.92 53.13 53.65 53.88 54.16 54.17 54.16 54.23 54.14 54.07 54.28 54.61 54.66 54.69 55.45 55.10 51.11 51.06 62.75 66.37 66.01 64.10 55.85 56.82 57.99 59.67 55.77 56.69 57.23 56.04 51.87 54.50 56.11 57.76 58.73 57.63 58.06 60.17 58.36 57.13 58.97 59.37 60.96 62.38 62.30
53.44 53.58 53.59 53.85 54.01 53.96 54.02 54.19 54.20 54.22 54.28 54.31 54.20 54.50 55.18 53.05 43.56 55.77 63.31 61.80 63.13 57.61 54.86 53.24 52.43 52.70 54.70 53.34 55.91 53.51 56.36 56.29 56.73 58.01 58.01 57.24 59.11 58.15 58.74 59.06 61.39 62.01 62.92 62.49 62.41
52.88 53.16 53.32 53.37 53.74 54.23 54.21 53.85 54.24 54.14 53.95 54.04 54.14 54.23 52.50 46.43 48.05 57.07 64.31 62.82 57.79 56.67 54.28 52.53 50.58 50.96 50.50 54.58 55.40 53.73 55.27 57.12 58.26 58.29 58.50 59.00 57.44 57.67 58.07 60.63 61.71 61.96 62.24 62.30 62.39
52.58 52.83 53.20 53.31 53.57 54.06 54.37 54.17 54.02 54.17 53.90 53.79 54.12 53.79 49.71 40.89 53.12 54.58 55.50 55.70 55.57 54.95 55.09 57.27 53.00 53.61 52.26 52.69 53.86 55.95 54.89 55.36 56.51 57.03 57.60 56.28 56.62 57.18 57.97 60.00 60.08 61.03 61.39 61.76 62.32
53.45 53.72 53.49 53.47 53.80 54.15 54.29 54.02 53.77 54.04 53.69 54.08 54.39 53.26 47.52 45.31 53.32 54.33 54.33 53.58 55.20 55.13 53.85 56.18 58.86 54.47 53.72 51.58 55.19 54.78 52.79 54.87 55.78 55.94 55.76 57.30 54.42 55.29 58.96 59.61 58.95 59.79 60.66 61.21 61.78
53.61 53.65 53.42 53.31 53.57 53.94 54.17 53.98 53.67 53.64 53.98 54.72 54.79 52.29 43.95 52.42 53.89 52.68 53.23 51.97 52.66 53.49 53.46 54.70 55.94 53.43 53.74 54.55 52.84 51.32 51.67 48.82 54.15 55.88 56.45 56.05 49.94 56.36 59.09 58.48 57.98 58.80 59.85 60.85 61.80
53.61 53.28 52.66 52.56 52.85 53.22 53.65 53.42 53.80 54.10 54.63 55.01 52.26 49.63 44.02 55.76 50.57 53.09 53.06 49.13 50.38 51.44 52.70 53.82 53.01 51.01 51.71 49.48 48.01 49.74 46.34 47.74 50.77 55.61 54.93 54.29 51.45 56.22 58.98 58.23 58.04 58.95 59.64 59.98 60.66
53.16 53.11 53.11 52.80 52.58 53.22 52.91 52.58 53.63 53.69 54.48 54.99 53.79 47.06 50.30 47.94 50.45 51.82 54.11 52.56 48.74 49.08 48.77 49.57 48.91 45.84 46.72 46.34 41.64 44.58 45.61 48.02 48.63 52.68 53.61 52.44 52.71 55.83 57.78 57.22 57.47 58.89 59.22 58.74 59.28
52.74 52.89 53.07 53.24 53.26 52.68 51.36 52.37 48.62 47.66 51.03 47.61 48.85 47.69 48.53 51.12 51.28 48.84 50.43 49.16 49.64 48.81 43.44 46.65 43.78 41.80 43.80 46.56 47.54 47.75 47.73 46.79 50.41 53.29 52.19 52.18 52.62 54.28 56.78 56.75 57.11 57.98 58.03 58.85 60.00
52.62 52.70 52.87 52.95 53.01 52.33 51.50 48.84 48.20 49.45 41.97 47.84 47.40 47.13 48.71 48.83 44.26 46.81 50.27 44.87 44.86 42.14 46.21 43.61 41.64 46.62 47.31 46.74 45.86 45.42 45.38 46.19 50.27 52.04 51.84 51.45 51.51 54.61 56.34 56.79 57.52 58.04 58.18 59.01 59.89
52.56 52.81 52.87 52.64 52.37 52.36 50.98 49.82 52.50 51.70 42.21 43.74 46.53 45.85 46.38 47.42 44.09 44.99 47.68 45.18 42.02 41.22 43.28 41.17 43.79 47.33 46.68 45.36 44.58 45.10 44.71 46.19 46.28 49.69 51.26 50.81 49.27 52.09 54.94 56.50 57.47 57.74 58.53 59.12 59.17
52.28 52.38 52.32 51.86 49.39 51.34 49.33 52.25 52.89 52.25 35.68 39.79 42.27 45.63 46.77 47.22 43.81 50.04 50.38 45.91 42.66 39.09 41.34 42.64 46.34 44.50 45.11 44.41 45.62 43.08 47.54 47.16 46.80 46.14 43.40 50.18 42.30 50.44 53.17 53.76 55.22 56.45 57.47 58.65 59.22
52.01 52.26 52.08 51.06 50.54 48.93 50.48 53.47 52.90 49.20 24.87 42.22 43.70 51.77 49.42 45.61 46.80 47.27 51.74 47.45 41.40 41.64 40.91 38.41 42.60 43.35 42.08 44.68 47.14 44.59 48.10 47.08 46.94 45.83 46.44 46.28 44.36 47.61 51.93 50.40 52.68 55.54 57.41 58.60 59.92
51.81 51.89 51.66 52.39 51.81 53.14 53.69 53.10 49.73 33.12 24.04 36.95 42.24 40.87 41.41 43.47 43.96 47.27 47.52 49.36 48.93 43.70 42.24 41.06 44.32 43.86 45.36 46.41 47.21 48.82 46.59 46.67 47.18 46.23 40.85 45.43 44.86 44.83 48.33 51.02 52.94 56.00 57.62 58.82 59.50
51.41 51.37 50.26 52.67 48.65 53.93 53.67 47.50 33.16 26.77 39.51 34.83 36.57 39.28 38.89 38.89 40.78 42.49 42.15 41.33 39.34 35.74 37.18 41.04 40.63 43.24 44.71 43.60 46.72 46.31 45.70 38.88 37.59 38.47 37.91 46.45 44.28 46.38 51.76 53.17 54.60 55.86 57.30 58.93 60.23
50.55 49.76 52.69 53.75 54.39 53.64 49.76 40.03 26.41 33.08 34.22 39.90 38.96 39.27 36.77 39.52 39.22 39.50 38.63 37.33 41.53 40.23 36.45 33.75 34.35 40.70 44.16 43.32 43.47 44.20 45.17 39.83 32.90 35.66 39.54 45.96 42.00 46.35 53.58 55.34 56.79 55.97 58.23 59.01 61.24
48.91 54.14 53.12 54.04 54.56 53.32 44.65 32.99 30.98 35.32 38.30 37.01 38.01 34.88 35.51 37.91 37.93 38.64 37.24 36.77 39.91 40.75 34.91 34.35 36.26 45.36 43.88 45.62 45.80 44.07 41.36 47.10 42.76 44.13 40.59 44.26 47.76 51.58 53.70 54.61 55.71 55.03 57.81 60.58 62.29
48.95 51.13 51.01 55.10 55.37 50.04 41.07 33.99 37.06 40.62 39.59 39.11 32.71 34.45 31.24 35.31 34.13 34.70 36.49 39.46 39.78 41.94 42.87 38.32 32.39 41.34 45.31 45.08 45.61 45.20 47.68 41.14 43.76 36.13 36.32 42.39 45.00 46.50 51.81 53.48 55.08 54.94 57.60 61.21 63.10
49.87 46.83 52.86 54.46 54.06 45.33 36.17 36.69 39.10 41.86 41.35 37.90 35.50 33.67 35.42 34.51 36.37 35.46 35.71 40.13 42.11 41.02 42.49 40.57 37.45 36.47 42.26 42.27 40.30 43.04 42.75 44.47 46.03 43.91 39.00 38.30 43.17 55.75 54.34 54.93 55.51 57.02 57.67 61.48 62.06
49.63 42.73 52.48 54.22 43.49 44.59 37.97 39.62 41.23 40.74 42.69 40.69 40.39 38.29 35.33 36.34 35.45 35.87 35.75 38.10 42.78 42.50 37.34 41.79 38.23 34.01 37.21 46.07 45.15 45.77 44.01 45.15 41.48 40.45 44.12 43.88 44.45 56.13 57.03 56.11 57.67 57.71 59.61 62.00 62.48
46.65 46.74 53.24 51.41 37.91 37.51 40.24 40.03 41.21 39.94 40.63 39.58 38.53 40.23 40.21 36.59 33.03 37.44 37.17 42.13 42.58 40.66 38.39 39.73 37.53 31.96 34.71 41.71 46.28 43.49 45.29 46.89 48.09 48.46 43.69 41.24 44.17 55.38 55.50 56.75 57.35 59.10 61.04 61.65 62.10
46.96 40.98 46.19 47.59 45.42 40.01 37.88 37.17 36.74 42.64 40.77 41.10 39.40 41.12 39.37 36.23 38.35 35.54 35.51 40.79 43.16 42.41 43.48 41.35 37.14 35.05 31.99 35.67 41.06 41.08 43.72 45.92 47.06 42.72 44.09 45.62 47.40 51.85 53.94 55.28 57.67 60.23 61.44 61.30 61.47
47.39 42.73 44.63 38.00 39.61 39.62 39.38 37.68 36.57 35.94 40.98 40.89 38.47 38.77 37.07 33.91 36.05 35.82 38.74 40.01 42.30 42.47 41.88 39.34 33.82 37.75 37.54 37.88 40.15 40.73 42.93 44.32 44.95 46.84 43.97 46.72 47.52 50.95 54.94 56.19 59.04 60.69 60.84 60.57 60.75
43.29 41.40 43.67 40.06 42.48 39.89 39.44 37.74 36.57 38.10 38.56 37.40 36.39 38.24 38.85 35.78 37.09 34.99 38.06 38.69 37.52 40.78 39.93 41.66 34.93 37.27 35.35 38.37 37.93 37.68 43.42 45.53 45.98 47.17 48.11 48.41 49.20 55.45 56.81 58.21 58.54 59.80 59.90 59.79 60.53
48.30 48.25 43.30 40.05 40.76 38.93 38.31 38.03 37.99 39.85 40.99 41.37 40.51 39.45 37.99 39.42 42.63 42.63 43.64 42.75 41.61 39.46 38.74 38.45 37.02 35.16 31.91 37.91 36.56 35.66 43.08 45.20 47.05 49.53 49.57 46.70 52.30 56.03 54.59 55.82 58.19 59.50 60.45 60.51 61.07
MSLP
1020.91 1020.59 1020.24 1019.70 1019.44 1019.21 1018.94 1018.56 1018.36 1018.03 1017.08 1016.65 1016.16 1015.68 1015.64 1015.32 1014.77 1013.16 1011.37 1009.30 1009.00 1008.85 1009.07 1008.51 1008.26 1007.74 1007.42 1007.02 1006.76 1006.67 1006.02 1004.13 1002.79 1001.58 1000.39 999.49 998.83 998.73 998.97 999.12 999.50 999.65 999.93 999.98 999.98
1020.98 1020.69 1020.41 1020.16 1019.87 1019.45 1019.30 1018.86 1018.31 1017.55 1017.21 1016.89 1016.22 1015.62 1015.33 1015.09 1014.07 1010.98 1008.49 1008.51 1008.51 1008.71 1008.71 1008.05 1007.05 1007.00 1006.67 1006.27 1006.22 1005.90 1004.80 1003.29 1002.57 1001.52 1000.43 999.78 999.26 998.99 999.14 999.40 999.59 999.89 999.81 999.43 999.43
1020.75 1020.43 1020.11 1019.81 1019.47 1019.17 1018.80 1018.62 1018.07 1017.39 1017.28 1017.09 1016.66 1016.40 1015.84 1015.51 1012.51 1007.83 1008.06 1007.58 1007.82 1008.04 1007.90 1007.38 1006.50 1006.12 1005.97 1005.79 1005.28 1004.73 1003.30 1003.18 1002.11 1001.39 1000.60 999.99 999.39 999.37 999.10 998.83 999.06 999.23 999.24 999.08 999.27
1020.69 1020.20 1019.80 1019.46 1019.11 1018.75 1018.41 1017.99 1017.71 1017.56 1017.11 1016.73 1016.37 1016.19 1015.56 1015.13 1010.14 1007.34 1007.71 1007.77 1007.89 1007.97 1007.86 1007.42 1006.76 1005.63 1005.05 1004.66 1004.41 1003.70 1002.80 1002.64 1001.90 1001.23 1000.49 999.81 999.50 998.98 998.82 998.65 998.70 998.86 999.05 998.81 998.93
1020.84 1020.34 1019.80 1019.24 1018.70 1018.24 1017.87 1017.53 1017.18 1016.90 1016.73 1016.52 1016.18 1016.05 1015.19 1012.31 1008.61 1007.05 1007.65 1007.62 1007.57 1007.75 1007.51 1007.25 1006.37 1005.63 1004.12 1003.92 1003.63 1002.20 1001.98 1001.71 1000.92 1000.40 999.94 999.64 999.11 998.87 998.54 998.73 998.54 998.38 998.45 998.41 998.58
1020.74 1020.30 1019.87 1019.40 1018.87 1018.25 1017.62 1017.05 1016.61 1016.35 1016.28 1016.14 1016.17 1016.15 1014.87 1011.27 1008.09 1007.14 1006.53 1006.76 1006.56 1006.61 1006.30 1006.14 1005.56 1005.56 1004.10 1003.22 1002.41 1001.87 1001.55 1000.71 1000.20 999.62 999.25 998.94 998.45 998.48 998.14 998.34 997.94 997.87 997.81 998.00 998.17
1020.66 1020.19 1019.66 1019.09 1018.51 1017.95 1017.43 1016.86 1016.27 1015.81 1015.57 1015.58 1015.59 1015.03 1013.01 1009.84 1008.32 1007.53 1007.29 1006.81 1006.58 1006.23 1005.64 1005.08 1004.78 1005.10 1004.11 1003.07 1002.31 1001.83 1000.95 1000.07 999.18 999.41 998.64 999.27 997.76 997.30 997.84 997.91 997.43 997.49 997.39 997.37 997.46
1020.56 1020.07 1019.52 1018.88 1018.22 1017.50 1016.73 1015.93 1015.26 1015.08 1014.83 1014.46 1014.40 1013.95 1011.01 1008.51 1007.67 1007.43 1007.23 1006.82 1006.63 1006.26 1005.82 1005.59 1005.04 1004.39 1003.41 1003.18 1002.54 1001.42 1001.01 999.04 998.53 998.92 997.78 999.20 997.00 997.02 997.55 997.34 996.92 997.17 997.07 996.79 996.51
1020.58 1020.09 1019.53 1018.86 1018.18 1017.46 1016.68 1015.61 1014.59 1013.85 1013.86 1013.82 1013.68 1012.58 1009.25 1006.86 1006.90 1006.70 1006.56 1006.02 1005.64 1005.36 1005.44 1005.61 1005.53 1004.73 1003.89 1002.64 1001.99 1000.99 999.31 998.52 997.50 998.20 998.03 997.96 996.83 995.80 996.43 996.42 995.99 996.16 996.46 996.51 996.19
1020.41 1019.84 1019.23 1018.55 1017.80 1016.98 1016.08 1014.52 1012.58 1013.38 1012.75 1012.35 1011.94 1011.02 1007.91 1006.41 1005.50 1005.48 1005.44 1005.43 1005.48 1005.43 1005.13 1004.92 1004.96 1004.57 1003.65 1001.78 999.29 999.31 999.34 997.51 997.43 997.52 997.14 996.62 996.06 995.09 995.49 995.50 995.21 995.12 995.20 995.47 995.67
1020.15 1019.56 1018.91 1018.16 1017.29 1016.57 1015.82 1013.31 1011.02 1011.18 1011.29 1010.43 1008.67 1007.71 1006.16 1005.73 1005.42 1005.31 1005.05 1005.04 1004.91 1004.93 1004.36 1004.23 1004.20 1002.03 999.05 1000.38 999.80 999.71 998.43 997.54 996.94 996.85 996.55 996.05 995.63 994.48 994.82 994.60 994.07 994.04 994.47 994.89 995.04
1019.91 1019.22 1018.54 1017.82 1016.97 1016.01 1015.56 1013.06 1011.77 1011.57 1009.80 1009.08 1007.77 1006.51 1006.10 1006.04 1004.94 1004.69 1004.91 1004.90 1004.78 1004.23 1004.08 1003.75 1001.38 998.37 1001.79 1000.71 1000.06 999.52 998.44 997.09 996.65 996.43 996.15 995.44 994.63 994.02 993.82 993.57 993.40 993.37 993.54 993.99 994.28
1019.83 1019.02 1018.27 1017.35 1016.57 1015.01 1013.74 1012.09 1011.84 1011.18 1009.91 1007.21 1005.36 1005.20 1004.81 1004.48 1003.61 1003.72 1004.25 1004.26 1004.17 1003.75 1003.28 1002.39 998.85 1001.93 1000.33 999.86 999.55 998.24 997.37 997.32 996.66 996.86 996.03 995.47 994.14 993.30 993.08 992.87 992.75 992.70 993.09 993.38 993.71
1019.74 1018.90 1018.00 1017.11 1016.15 1014.16 1012.62 1012.30 1011.64 1011.52 1009.95 1004.71 1003.30 1002.69 1003.34 1003.31 1003.10 1002.68 1002.79 1003.55 1003.52 1003.29 1002.97 1001.47 1000.93 1000.04 999.59 998.67 998.57 996.96 997.30 997.33 996.95 996.85 995.64 996.02 993.42 992.40 992.67 992.20 992.08 992.18 992.15 992.20 992.63
1019.53 1018.65 1017.72 1017.55 1016.26 1013.86 1013.26 1012.44 1012.04 1012.22 1009.21 1004.49 1004.66 1003.61 1003.38 1003.18 1002.48 1002.18 1003.03 1002.69 1002.65 1002.51 1003.06 999.77 999.94 999.63 998.83 996.68 998.16 995.82 997.69 996.72 996.53 996.21 996.11 995.25 994.43 990.31 992.38 991.59 991.55 991.35 991.14 991.28 991.57
1019.27 1018.62 1017.82 1015.42 1015.52 1013.97 1013.25 1013.03 1012.92 1012.47 1008.98 1007.39 1007.45 1006.06 1005.32 1004.64 1003.60 1002.27 1002.39 1002.80 1002.65 1002.20 1001.77 1000.31 1000.36 999.40 997.86 998.05 997.51 997.34 996.90 996.74 996.32 995.81 994.79 993.26 994.12 989.99 991.54 991.28 990.63 990.31 990.00 990.02 990.45
1019.01 1018.37 1017.89 1016.43 1014.64 1014.08 1013.61 1013.36 1013.10 1011.29 1008.43 1007.31 1006.17 1005.77 1005.27 1004.56 1003.44 1002.61 1002.29 1001.99 1002.08 1002.33 1001.38 1000.43 999.96 999.22 998.46 997.23 996.85 996.57 996.27 995.92 995.76 994.71 992.29 993.27 992.79 990.30 990.80 990.51 989.78 989.41 989.32 989.46 990.03
1018.42 1017.83 1016.30 1014.76 1014.42 1014.44 1014.19 1013.81 1012.67 1010.43 1008.23 1007.33 1006.57 1005.71 1005.25 1004.36 1003.44 1002.67 1002.28 1002.39 1001.96 1001.92 1002.15 1001.92 999.66 998.40 997.79 996.40 995.72 995.64 995.13 994.06 993.28 992.80 992.35 992.77 990.91 989.53 989.52 988.96 988.67 988.89 988.78 989.25 990.20
1017.84 1015.52 1014.95 1014.36 1014.70 1014.52 1014.34 1012.87 1011.48 1009.47 1008.43 1007.73 1007.24 1007.53 1006.50 1006.74 1006.35 1004.16 1002.71 1002.60 1002.45 1003.54 1003.62 1002.54 999.89 998.38 997.53 996.85 996.06 994.50 994.62 993.62 993.62 992.75 991.99 990.16 989.16 988.36 988.34 987.96 988.06 988.40 988.90 989.66 990.65
1018.00 1015.67 1014.01 1014.33 1014.60 1014.53 1014.30 1012.47 1010.46 1009.20 1008.70 1008.22 1007.95 1008.89 1008.24 1006.63 1006.84 1006.19 1004.42 1004.29 1003.52 1003.60 1004.03 1003.59 1002.02 999.68 997.70 996.60 995.37 994.35 993.74 993.93 992.60 992.10 990.74 989.79 987.86 986.34 986.65 986.85 987.30 988.05 988.68 989.97 991.22
1016.97 1014.37 1013.41 1014.05 1014.22 1014.05 1013.47 1011.58 1010.32 1009.77 1009.01 1008.43 1008.14 1009.04 1008.15 1007.74 1007.37 1006.50 1005.93 1004.33 1004.80 1004.20 1004.15 1003.97 1003.42 1000.21 999.47 995.86 994.90 994.15 992.83 992.43 992.49 991.82 990.45 989.38 987.44 985.68 985.81 986.21 987.02 987.70 988.78 990.10 991.55
1015.97 1013.25 1012.91 1013.32 1013.71 1013.89 1012.82 1011.66 1010.62 1010.08 1008.88 1008.37 1008.08 1008.39 1008.77 1008.51 1007.17 1006.24 1005.53 1006.44 1006.33 1005.52 1005.02 1004.41 1003.60 1001.47 999.35 996.29 994.75 993.97 992.75 992.23 991.25 990.94 990.50 989.49 987.33 986.03 986.02 986.30 986.90 987.43 988.53 990.13 991.60
1016.02 1012.98 1012.91 1013.11 1013.12 1013.44 1013.16 1011.93 1010.86 1010.08 1009.56 1009.30 1008.64 1008.25 1008.36 1008.20 1008.16 1006.33 1006.36 1006.56 1006.50 1006.31 1005.94 1005.99 1004.03 1002.04 1000.25 997.69 995.14 993.44 992.90 992.14 991.65 991.28 989.93 989.03 987.40 986.62 986.52 986.47 986.73 987.53 988.96 990.38 991.71
1016.69 1013.45 1012.43 1012.77 1013.25 1013.65 1012.83 1012.35 1011.37 1011.05 1010.52 1009.76 1009.02 1008.27 1008.09 1007.95 1007.26 1006.56 1006.72 1006.27 1005.93 1005.66 1005.92 1006.60 1005.39 1003.26 1000.75 999.63 998.53 995.26 993.03 991.71 990.71 990.00 989.17 988.08 987.21 986.85 986.44 986.45 987.02 988.28 989.38 990.54 991.73
1016.58 1014.31 1014.24 1013.56 1013.50 1013.59 1013.67 1012.79 1011.59 1010.64 1010.45 1010.04 1009.38 1008.33 1007.80 1007.19 1006.16 1005.35 1005.34 1005.27 1005.10 1005.35 1005.99 1006.73 1005.08 1003.16 1001.59 1001.23 1000.50 998.38 994.45 991.12 989.58 989.15 988.84 987.45 987.03 987.02 986.81 986.90 987.69 988.86 989.72 990.72 991.83
1017.29 1016.66 1015.79 1015.35 1013.85 1013.47 1013.21 1012.50 1011.69 1011.01 1010.97 1009.90 1009.41 1008.77 1007.91 1006.82 1006.06 1005.05 1004.67 1004.41 1004.48 1005.04 1005.25 1005.37 1004.14 1003.02 1001.35 1001.03 1000.88 999.08 994.41 991.24 989.30 988.71 988.51 987.54 986.88 986.77 987.12 987.74 988.58 989.40 990.04 990.90 991.92
1018.34 1017.75 1017.25 1015.63 1013.77 1013.02 1013.02 1012.99 1012.11 1011.60 1010.68 1009.75 1008.80 1008.59 1007.36 1006.51 1005.77 1005.03 1004.12 1003.82 1003.81 1003.40 1003.38 1003.66 1003.57 1002.88 1000.72 1000.40 1000.68 996.77 992.41 990.65 988.50 988.03 987.67 987.33 986.75 987.59 987.81 988.59 989.07 989.72 990.34 990.94 991.77
Wind_Speed
15 14 15 16 16 15 15 15 15 15 17 18 18 19 19 19 21 18 14 15 8 9 4 10 14 16 16 18 18 18 15 16 22 22 20 20 17 10 11 9 14 12 11 14 14
16 15 14 14 14 14 14 14 15 15 15 17 18 20 22 21 22 21 19 16 8 11 15 18 16 17 15 18 18 19 17 25 21 20 21 21 21 19 14 14 14 11 21 16 12
17 16 16 16 16 15 15 14 15 15 15 15 15 17 19 21 14 9 9 11 13 15 17 19 19 19 22 21 22 22 24 24 22 24 23 24 23 22 22 21 17 21 20 19 13
19 19 19 19 19 18 17 17 16 16 16 16 16 17 19 14 9 7 7 11 7 8 15 18 20 25 26 26 24 28 29 27 27 27 26 26 26 26 24 23 19 17 24 16 14
18 19 20 21 22 21 20 20 19 18 16 15 15 15 13 12 16 11 9 10 9 12 18 23 25 25 30 27 26 31 29 29 28 28 28 28 28 28 27 27 25 24 24 20 19
17 18 19 19 20 20 21 21 20 19 17 16 14 13 14 23 12 17 14 12 13 15 21 21 22 25 27 30 32 27 29 31 31 30 29 30 29 28 26 25 26 24 21 21 22
16 17 19 20 20 20 19 20 21 21 23 19 15 12 17 23 19 21 21 14 16 18 19 19 19 25 26 32 31 31 34 32 32 30 30 28 32 31 26 24 24 24 23 21 20
18 18 19 21 22 23 24 25 25 22 23 21 16 13 14 16 17 20 21 23 23 21 21 19 19 20 24 27 31 32 32 31 28 29 33 27 31 29 25 26 23 24 22 20 21
16 16 18 20 21 22 23 27 30 30 21 13 9 12 15 13 14 18 20 22 21 20 21 18 20 19 18 21 22 29 23 35 34 29 30 30 31 30 25 26 24 20 19 21 20
18 18 18 20 23 23 24 31 28 16 12 12 13 12 18 14 12 6 6 7 14 17 19 22 16 20 19 20 25 22 31 34 28 25 27 30 29 29 23 25 24 21 16 16 21
21 20 20 21 23 22 20 14 7 4 10 17 15 14 22 17 6 9 10 10 13 14 20 22 18 26 43 29 30 28 32 32 28 27 28 25 27 30 22 21 21 18 15 18 19
24 23 23 23 23 26 15 11 15 13 20 19 27 31 27 26 28 23 18 17 15 19 19 20 30 39 21 32 33 33 31 32 27 26 24 23 26 26 22 22 19 19 17 17 17
22 23 24 25 23 16 10 12 11 16 17 30 34 30 25 26 25 22 21 22 22 22 21 25 36 23 30 31 29 33 32 26 30 25 26 23 26 25 23 24 21 17 17 17 17
22 24 25 24 11 14 11 15 16 14 11 12 8 9 18 5 16 16 17 22 23 26 23 24 25 32 31 34 32 29 27 28 27 24 18 21 21 24 18 21 19 18 20 17 19
24 25 25 11 11 8 15 15 13 5 8 13 17 9 19 15 4 5 3 17 19 21 22 32 24 26 32 36 29 33 24 26 27 24 21 24 17 19 16 17 16 15 16 15 15
24 24 23 2 10 12 16 14 8 5 4 9 9 13 16 17 19 6 11 5 14 18 21 29 26 28 29 27 32 25 27 27 25 18 18 25 21 23 18 17 18 19 17 14 15
24 23 17 11 11 14 11 7 6 3 18 9 15 12 12 14 17 12 16 12 12 7 19 24 26 29 30 29 29 31 21 17 17 18 24 17 21 21 19 19 21 17 14 10 8
27 24 10 10 8 6 6 2 5 12 15 20 20 22 19 17 16 19 17 12 16 13 10 12 15 28 29 32 25 30 25 15 26 16 19 23 23 20 19 22 15 8 8 6 9
28 8 8 5 5 5 6 5 4 14 17 19 20 17 19 17 17 22 20 9 15 3 8 10 15 24 29 29 28 25 29 27 23 21 17 15 22 29 23 17 13 7 10 8 10
10 9 5 8 6 6 4 12 14 17 18 17 17 2 18 25 7 10 16 4 10 1 4 6 18 21 25 28 33 29 21 27 18 23 21 21 19 9 14 18 12 9 11 14 14
6 5 6 2 6 6 6 14 22 19 18 18 20 9 17 20 17 17 10 6 3 5 9 13 13 23 22 24 28 25 24 27 18 19 16 14 13 7 10 7 11 12 14 17 15
6 6 7 2 3 4 10 21 19 16 17 14 15 20 10 22 19 20 14 8 8 10 10 17 7 17 23 27 25 29 25 23 16 24 16 14 15 8 8 7 12 15 18 17 16
7 9 5 5 3 8 17 18 20 18 16 20 17 18 9 15 9 13 9 6 5 6 2 6 7 10 21 19 21 27 28 25 21 13 19 17 13 6 9 13 13 16 18 16 17
7 6 2 5 4 9 17 16 18 19 12 15 18 16 15 15 17 10 13 5 8 11 10 3 7 17 11 10 18 13 30 31 24 20 17 19 2 11 13 10 12 16 17 17 17
5 6 6 8 11 11 13 18 19 17 13 18 10 16 18 16 20 17 10 14 8 1 3 3 8 18 19 10 15 23 28 31 28 24 22 21 11 17 14 12 15 15 16 17 17
7 6 8 14 14 13 12 14 19 20 18 15 13 18 19 18 17 18 19 14 9 8 6 8 5 19 17 12 15 25 28 24 30 27 27 26 15 12 16 14 14 13 17 16 16
5 7 2 10 14 12 7 18 19 18 11 17 18 19 16 15 20 21 21 19 19 19 14 12 8 8 12 7 9 19 23 22 27 23 27 18 10 23 14 11 16 14 16 14 15
Wind_Direction
357 356 353 353 348 346 342 339 335 328 334 332 330 330 324 320 306 270 247 241 252 193 169 239 218 220 229 228 231 232 248 251 253 259 274 282 287 293 314 310 292 300 306 312 301
352 351 350 347 341 341 335 331 328 329 328 326 327 326 320 322 302 272 250 234 187 165 217 228 216 222 223 229 229 224 243 240 248 262 274 291 286 286 271 272 252 256 288 266 287
349 348 345 343 340 335 332 325 323 324 319 315 318 314 312 310 282 262 30 222 171 177 231 244 244 222 232 231 231 228 238 250 255 262 266 269 278 286 288 277 282 301 285 289 304
346 346 344 341 337 334 329 325 319 313 313 315 317 315 311 289 252 90 129 101 96 215 236 247 254 246 233 232 235 240 239 245 253 259 269 271 276 276 283 290 288 254 272 275 283
346 343 340 337 334 331 326 323 317 311 308 309 311 312 308 242 246 261 171 161 185 199 228 235 239 238 239 237 235 237 242 245 250 253 254 262 264 272 278 284 288 290 285 283 289
338 337 334 330 326 322 318 315 311 307 302 302 295 294 268 264 272 267 260 263 254 247 230 223 235 242 249 242 241 242 244 249 258 259 260 266 271 272 268 275 278 278 270 271 270
334 333 333 330 325 318 310 303 298 298 300 296 285 275 266 258 293 299 301 283 265 254 252 258 231 232 248 249 254 252 256 262 254 259 266 273 270 265 282 281 280 281 276 272 270
339 337 334 329 324 319 315 309 301 295 295 291 285 265 264 273 264 260 255 249 252 262 265 269 281 290 258 254 263 254 257 260 252 254 254 257 265 265 268 270 265 273 287 277 273
337 332 326 321 316 310 304 297 294 293 289 266 253 218 272 258 230 239 245 253 253 244 241 241 252 259 269 246 243 244 248 249 248 248 262 255 260 261 250 255 256 249 251 268 274
337 333 327 321 318 311 310 296 276 274 248 228 234 253 241 266 270 196 295 226 235 250 251 232 227 239 241 235 225 221 235 242 257 250 250 248 251 261 260 263 265 258 251 257 271
338 334 328 323 318 312 320 306 340 245 219 272 278 215 294 298 201 233 268 267 253 241 236 224 217 222 219 220 241 237 239 248 254 252 247 256 259 265 276 275 259 246 253 268 263
336 332 328 320 315 312 298 292 329 322 294 278 265 267 269 273 270 267 268 251 250 239 229 227 220 226 233 227 234 244 255 253 261 261 258 265 261 264 255 255 254 265 244 251 258
331 327 327 319 318 294 280 324 331 294 293 281 262 257 259 247 245 252 240 240 240 245 235 225 236 226 235 234 234 234 236 247 259 268 271 273 270 267 266 271 272 267 275 272 276
330 325 325 325 284 323 310 345 324 354 288 277 226 214 225 234 257 248 232 229 234 238 249 247 239 240 227 238 230 240 233 243 248 253 259 258 270 251 257 263 259 256 255 248 242
327 328 323 319 311 329 331 335 329 334 272 36 17 17 348 216 145 196 219 243 241 243 231 242 242 233 239 238 229 244 244 245 244 249 257 251 260 266 276 272 276 269 258 252 252
325 329 331 332 217 298 330 330 332 253 257 6 11 328 345 337 306 316 197 214 276 243 245 254 249 257 245 241 247 238 243 248 255 254 245 240 245 266 259 272 277 268 265 256 234
321 323 315 309 335 334 328 329 282 301 317 351 343 334 300 283 287 244 245 256 223 269 254 245 242 252 250 251 231 240 228 233 234 233 243 242 238 257 270 267 269 276 264 257 244
319 313 267 267 344 355 322 289 265 277 1 351 343 333 318 315 301 284 278 262 267 259 256 275 270 224 239 241 236 224 234 222 219 216 246 248 251 256 253 254 247 285 231 225 128
313 245 252 24 349 316 331 278 43 316 354 340 334 346 323 340 332 306 268 257 274 124 275 317 278 262 222 244 240 230 226 237 245 234 252 255 233 238 243 245 239 198 198 137 122
316 306 284 351 24 283 286 282 294 349 335 327 326 260 308 318 328 313 318 98 297 309 297 281 287 280 287 222 245 244 218 225 221 233 239 234 250 275 199 224 211 205 163 133 123
267 228 110 333 266 265 284 305 334 329 301 321 315 290 323 323 315 327 275 170 233 283 290 269 261 271 288 265 214 229 235 217 239 227 239 248 269 197 172 142 147 170 161 136 140
296 275 121 237 284 256 293 333 319 319 325 313 315 319 3 306 305 294 239 13 238 328 304 297 283 258 268 274 217 232 224 231 218 218 237 248 248 87 100 138 164 165 143 134 144
287 289 135 239 328 321 314 319 320 334 344 326 323 310 318 298 319 320 342 173 228 275 292 346 245 260 257 266 258 229 221 234 238 241 217 236 241 163 169 212 178 125 129 139 147
282 307 37 343 347 304 321 317 317 328 328 317 309 312 310 326 287 268 336 274 239 296 267 356 260 265 254 320 339 288 211 230 226 211 227 228 188 165 175 143 126 120 132 144 144
254 342 11 299 326 313 305 291 314 335 341 329 316 325 325 310 310 322 308 312 315 172 233 206 268 287 256 255 304 301 285 224 224 202 223 236 159 209 176 159 120 126 140 141 145
335 339 348 299 306 306 314 319 322 329 327 314 319 317 312 309 310 315 309 297 288 270 242 217 282 300 281 212 272 287 276 266 220 199 221 240 158 124 98 103 123 144 141 151 152
359 298 311 289 303 327 320 325 313 330 304 306 306 313 305 310 311 305 294 285 281 277 262 279 301 320 248 193 323 272 236 241 211 203 214 227 161 127 143 118 151 155 150 156 155